Flag for Denmark Weather past 2 weeks in Aalborg, Denmark

Now
84 °F

Passing clouds.


Feels Like: 83 °F
Forecast: 67 / 79 °F
Wind: 13 mph from East

Location: Aalborg Airport

Current Time: Jul 26, 2014 at 1:46:41 PM

Latest Report: Jul 26, 2014 at 1:20 PM


Visibility: N/A

Pressure: 30.01 "Hg

Humidity: 40%

Dew point: 57 °F

Location of AalborgLocation

Historic Weather in Aalborg — Graph

°F

Aalborg temperature yesterday

Maximum temperature yesterday: 86 °F (at 1:50 PM)
Minimum temperature yesterday: 61 °F (at 4:50 AM)
Average temperature yesterday: 76 °F

Past Weeks' High & Low Weather Summary

 TemperatureHumidityPressure
High86 °F (Jul 25, 1:50 PM)100% (Jul 13, 7:50 AM)30.27 "Hg (Jul 13, 7:50 AM)
Low55 °F (Jul 17, 5:20 AM)29% (Jul 24, 1:20 PM)29.47 "Hg (Jul 13, 10:50 PM)
Average69 °F68%30.03 "Hg
* Reported Jul 11 12:20 PM — Jul 26 12:50 PM, Aalborg, Weather by CustomWeather, © 2014

Note: Actual official high and low records may vary slightly from our data, if they occured in-between our weather recording intervals... More about our weather records

Advertising

Aalborg weather history for previous 24 hours

 ConditionsComfort  
Time TempWeatherWind HumidityBarometerVisibility
12:50 PM
Jul 26
84 °FPartly sunny.12 mph40%30.04 "HgN/A
12:20 PM82 °FPartly sunny.9 mph48%30.04 "HgN/A
11:50 AM81 °FPartly sunny.10 mph51%30.04 "HgN/A
11:20 AM81 °FScattered clouds.10 mph51%30.04 "HgN/A
10:50 AM81 °FScattered clouds.9 mph51%30.04 "HgN/A
10:20 AM82 °FSunny.9 mph45%30.04 "Hg10 mi
9:50 AM81 °FPassing clouds.7 mph58%30.04 "HgN/A
9:20 AM79 °FSunny.7 mph61%30.04 "Hg10 mi
8:50 AM77 °FSunny.3 mph61%30.04 "Hg10 mi
8:20 AM75 °FSunny.2 mph65%30.04 "Hg10 mi
7:50 AM72 °FPassing clouds.2 mph65%30.04 "HgN/A
7:20 AM70 °FSunny.1 mph69%30.07 "Hg10 mi
6:50 AM68 °FSunny.3 mph73%30.07 "Hg10 mi
6:20 AM64 °FSunny.No wind83%30.07 "Hg10 mi
5:50 AM63 °FClear.No wind83%30.07 "Hg10 mi
5:20 AM63 °FClear.No wind77%30.07 "Hg10 mi
4:50 AM64 °FClear.No wind78%30.07 "Hg10 mi
4:20 AM64 °FClear.No wind78%30.07 "Hg10 mi
3:50 AM64 °FClear.No wind78%30.07 "Hg10 mi
3:20 AM64 °FClear.No wind73%30.07 "Hg10 mi
2:50 AM66 °FClear.3 mph68%30.07 "Hg10 mi
2:20 AM68 °FClear.2 mph69%30.09 "Hg10 mi
1:50 AM68 °FClear.3 mph69%30.09 "Hg10 mi
1:20 AM70 °FClear.3 mph64%30.09 "Hg10 mi
12:50 AM70 °FClear.1 mph69%30.09 "Hg10 mi
12:20 AM72 °FClear.No wind65%30.09 "Hg10 mi
11:50 PM
Jul 25
73 °FClear.2 mph61%30.09 "Hg10 mi
11:20 PM73 °FClear.3 mph61%30.09 "Hg10 mi
10:50 PM73 °FClear.3 mph61%30.09 "Hg10 mi
10:20 PM75 °FSunny.5 mph54%30.09 "Hg10 mi
9:50 PM77 °FPassing clouds.5 mph51%30.09 "HgN/A
9:20 PM77 °FSunny.7 mph51%30.09 "Hg10 mi
8:50 PM79 °FSunny.7 mph48%30.09 "Hg10 mi
8:20 PM81 °FSunny.9 mph42%30.09 "Hg10 mi
7:50 PM82 °FSunny.8 mph37%30.09 "Hg10 mi
7:20 PM82 °FSunny.8 mph37%30.09 "Hg10 mi
6:50 PM82 °FSunny.7 mph37%30.09 "Hg10 mi
6:20 PM84 °FSunny.9 mph35%30.09 "Hg10 mi
5:50 PM84 °FPassing clouds.9 mph33%30.09 "HgN/A
5:20 PM84 °FSunny.13 mph33%30.09 "Hg10 mi
4:50 PM84 °FSunny.14 mph31%30.09 "Hg10 mi
4:20 PM86 °FPassing clouds.15 mph31%30.09 "HgN/A
3:50 PM86 °FSunny.16 mph31%30.09 "Hg10 mi
3:20 PM86 °FPassing clouds.17 mph33%30.09 "HgN/A
2:20 PM86 °FPassing clouds.17 mph29%30.12 "HgN/A
1:50 PM86 °FPassing clouds.15 mph31%30.12 "HgN/A
1:20 PM84 °FPassing clouds.13 mph35%30.12 "HgN/A
Weather by CustomWeather, © 2014

See weather overviewHow to use our weather pages